Location: Coed Ely
(51.5661°N, 3.4150°W)
Time: 22:20:18
(UTC+00:00)

USA 229 DEB - Pass Details

Date: 28 January 2021
Orbit: 965 x 1247 km, 63.4° (Epoch: 26 February)

Event Time Altitude Azimuth Distance (km) Brightness Sun altitude
Rises 17:21:02 0° 313° (NW) 3,905 7.0 -4.3°
Reaches altitude 10° 17:23:39 10° 316° (NW) 2,985 6.3 -4.7°
Maximum altitude 17:30:50 74° 42° (NE) 1,215 3.9 -5.7°
Drops below altitude 10° 17:38:27 10° 127° (SE) 3,162 5.9 -6.8°
Sets 17:41:17 0° 129° (SE) 4,149 6.5 -7.2°
